sat.trackr.live / text

‹ back to catalog

STARLINK-34182

NORAD 64013 · 2025-101V

PAYLOAD ACTIVE UNKNOWN

§ Identity

Operator
Country
US
Launch date
2025-05-14
Launch site
AFETR
Launch vehicle
Mass (kg)
RCS (m²)

Purposes: comms

External: N2YO · Heavens-Above · Gunter

§ Orbital elements

Epoch: 2026-09-20T21:07:04.859904Z

Period
94.27 min
Inclination
42.9979°
Eccentricity
0.0002353
Mean motion
15.27596862 rev/d
Perigee alt
481.4 km
Apogee alt
484.6 km
Semi-major
6,861.1 km
B*
3.8372e-4
RAAN
332.4573°
Arg perigee
276.5956°
Mean anomaly
83.4628°
Rev number
7,694

§ Raw data

STARLINK-341821 64013U 25101V   26263.87991736  .00010317  00000+0  38372-3 0  99992 64013  42.9979 332.4573 0002353 276.5956  83.4628 15.27596862 76944

JSON: /api/v1/satellites/64013 · /tle

For live sub-satellite position, see the globe view (requires WebGL).

§ Visibility from observer

Set your observer location to see the next 7 days of passes ≥ 10°. The values pass through the URL so the page stays shareable.

No JS? Fill the form by hand. The geolocation button needs JavaScript.